Погода в Великом Бурлуке

Украина / Харьковская область     50°02′58″N   37°22′59″E
темп.,
°C
ветер,
м/с
пор.,
м/с
влажн.,
%
обл.,
%
осадки,
мм/ч
давл.,
гПа
погр.,
м
19 сентября, вс
вс1900:00+15вюв61137100 0.0 1012308
03:00+15вюв61343100 0.0 1012479
06:00+15юв6126684 0.0 1010476
09:00+15юв61062100 0.4 1010534
12:00+16юв71272100 0.6 1008665
15:00+14юв81592100 16.9 1008952
18:00+16ююв599092 0.3 1008436
21:00+14ю22935 1.3 100716
20 сентября, пн
пн2000:00+13ююв22895 0.0 100712
03:00+13вюв229229 0.3 100717
06:00+13ю3491100 0.7 100660
09:00+14зюз598471 0.8 1008504
12:00+16юз79510 0.0 10091256
15:00+14з7951100 0.0 1010988
18:00+13з4653100 0.0 1010689
21:00+12зюз255994 0.0 1011232
21 сентября, вт
вт2100:00+11юз3663100 0.0 1012694
03:00+10юз3775100 0.0 1012566
06:00+8юз349099 0.0 1012114
09:00+11ююз3574100 0.0 1012521
12:00+12юз5664100 0.1 10111219
15:00+10з5668100 0.3 1012730
18:00+10зюз4667100 0.0 1012906
21:00+8з5780100 0.0 1013786
22 сентября, ср
ср2200:00+8з5782100 0.0 1013808
03:00+7з5785100 0.0 1013905
06:00+6з4782100 0.0 1014871
09:00+7з5778100 0.1 1014937
12:00+7з5674100 0.1 1014919
15:00+8з4570100 0.1 10141034
18:00+8з3469100 0.1 1015771
21:00+7з127294 0.1 101688
23 сентября, чт
чт2300:00+7ююз1174100 0.0 101518
03:00+7юв1271100 0.0 1015106
06:00+7юв2470100 0.0 1015169
09:00+9ю3463100 0.0 1015987
12:00+10юв3464100 0.1 1015930
15:00+12юз1356100 0.1 10141272
18:00+9сз2275100 0.3 1014113
21:00+8сз3482100 0.6 1014254